<?xml version="1.0" encoding="UTF-8" standalone="no" ?>
<gpx xmlns="http://www.topografix.com/GPX/1/1" xmlns:xsi="http://www.w3.org/2001/XMLSchema-instance" xsi:schemaLocation="http://www.topografix.com/GPX/1/1 http://www.topografix.com/GPX/1/1/gpx.xsd" version="1.1" creator="VisuGPX - https://www.visugpx.com">
  <metadata>
    <name>Parcours VTT FFC Saillans</name>
  </metadata>
  <trk>
    <name><![CDATA[VTT N°9 noir - chapelle Saint Moirans - 29 km - Déniv 910 m]]></name>
    <extensions>
      <line xmlns="http://www.topografix.com/GPX/gpx_style/0/2">
        <color>000000</color>
        <width>4</width>
      </line>
    </extensions>
    <trkseg>
      <trkpt lat="44.69684" lon="5.19997">
        <ele>267</ele>
        <time>2022-11-18T09:23:53Z</time>
        <extensions>
          <visugpx:TrkExtension xmlns:visugpx="https://www.visugpx.com/editgpx/">
            <visugpx:node>1</visugpx:node>
            </visugpx:TrkExtension>
        </extensions>
      </trkpt>
      <trkpt lat="44.69673" lon="5.20155">
        <ele>266</ele>
        <time>2022-11-18T09:23:53Z</time>
      </trkpt>
      <trkpt lat="44.69678" lon="5.20227">
        <ele>267</ele>
        <time>2022-11-18T09:23:53Z</time>
      </trkpt>
      <trkpt lat="44.69681" lon="5.20269">
        <ele>271</ele>
        <time>2022-11-18T09:23:53Z</time>
      </trkpt>
      <trkpt lat="44.69674" lon="5.203">
        <ele>270</ele>
        <time>2022-11-18T09:23:53Z</time>
      </trkpt>
      <trkpt lat="44.69657" lon="5.20349">
        <ele>276</ele>
        <time>2022-11-18T09:23:53Z</time>
      </trkpt>
      <trkpt lat="44.69631" lon="5.20398">
        <ele>279</ele>
        <time>2022-11-18T09:23:53Z</time>
      </trkpt>
      <trkpt lat="44.69601" lon="5.20428">
        <ele>281</ele>
        <time>2022-11-18T09:23:53Z</time>
      </trkpt>
      <trkpt lat="44.69553" lon="5.20445">
        <ele>280</ele>
        <time>2022-11-18T09:23:53Z</time>
      </trkpt>
      <trkpt lat="44.69505" lon="5.20465">
        <ele>277</ele>
        <time>2022-11-18T09:23:53Z</time>
      </trkpt>
      <trkpt lat="44.69455" lon="5.205">
        <ele>279</ele>
        <time>2022-11-18T09:23:53Z</time>
      </trkpt>
      <trkpt lat="44.69409" lon="5.20526">
        <ele>283</ele>
        <time>2022-11-18T09:23:53Z</time>
      </trkpt>
      <trkpt lat="44.69317" lon="5.20531">
        <ele>280</ele>
        <time>2022-11-18T09:23:53Z</time>
      </trkpt>
      <trkpt lat="44.69308" lon="5.20514">
        <ele>275</ele>
        <time>2022-11-18T09:23:53Z</time>
      </trkpt>
      <trkpt lat="44.69298" lon="5.20485">
        <ele>269</ele>
        <time>2022-11-18T09:23:53Z</time>
      </trkpt>
      <trkpt lat="44.6931" lon="5.20451">
        <ele>262</ele>
        <time>2022-11-18T09:23:53Z</time>
      </trkpt>
      <trkpt lat="44.6941" lon="5.20233">
        <ele>272</ele>
        <time>2022-11-18T09:23:53Z</time>
      </trkpt>
      <trkpt lat="44.69482" lon="5.20072">
        <ele>268</ele>
        <time>2022-11-18T09:23:53Z</time>
      </trkpt>
      <trkpt lat="44.69497" lon="5.20082">
        <ele>266</ele>
        <time>2022-11-18T09:23:53Z</time>
      </trkpt>
      <trkpt lat="44.69511" lon="5.20074">
        <ele>265</ele>
        <time>2022-11-18T09:23:53Z</time>
      </trkpt>
      <trkpt lat="44.69516" lon="5.20058">
        <ele>264</ele>
        <time>2022-11-18T09:23:53Z</time>
      </trkpt>
      <trkpt lat="44.69505" lon="5.20026">
        <ele>265</ele>
        <time>2022-11-18T09:23:53Z</time>
      </trkpt>
      <trkpt lat="44.69477" lon="5.19981">
        <ele>271</ele>
        <time>2022-11-18T09:23:53Z</time>
      </trkpt>
      <trkpt lat="44.69436" lon="5.19906">
        <ele>285</ele>
        <time>2022-11-18T09:23:53Z</time>
      </trkpt>
      <trkpt lat="44.69406" lon="5.19882">
        <ele>289</ele>
        <time>2022-11-18T09:23:53Z</time>
      </trkpt>
      <trkpt lat="44.69361" lon="5.19864">
        <ele>293</ele>
        <time>2022-11-18T09:23:53Z</time>
      </trkpt>
      <trkpt lat="44.693" lon="5.19858">
        <ele>297</ele>
        <time>2022-11-18T09:23:53Z</time>
      </trkpt>
      <trkpt lat="44.69199" lon="5.19856">
        <ele>306</ele>
        <time>2022-11-18T09:23:53Z</time>
      </trkpt>
      <trkpt lat="44.69155" lon="5.19844">
        <ele>309</ele>
        <time>2022-11-18T09:23:53Z</time>
      </trkpt>
      <trkpt lat="44.69042" lon="5.19832">
        <ele>311</ele>
        <time>2022-11-18T09:23:53Z</time>
      </trkpt>
      <trkpt lat="44.69009" lon="5.19812">
        <ele>313</ele>
        <time>2022-11-18T09:23:53Z</time>
      </trkpt>
      <trkpt lat="44.68998" lon="5.19811">
        <ele>313</ele>
        <time>2022-11-18T09:23:53Z</time>
      </trkpt>
      <trkpt lat="44.6898" lon="5.19804">
        <ele>314</ele>
        <time>2022-11-18T09:23:53Z</time>
      </trkpt>
      <trkpt lat="44.68937" lon="5.19808">
        <ele>311</ele>
        <time>2022-11-18T09:23:53Z</time>
      </trkpt>
      <trkpt lat="44.68819" lon="5.19789">
        <ele>312</ele>
        <time>2022-11-18T09:23:53Z</time>
      </trkpt>
      <trkpt lat="44.68738" lon="5.19757">
        <ele>315</ele>
        <time>2022-11-18T09:23:53Z</time>
      </trkpt>
      <trkpt lat="44.68634" lon="5.19717">
        <ele>319</ele>
        <time>2022-11-18T09:23:53Z</time>
      </trkpt>
      <trkpt lat="44.68464" lon="5.19676">
        <ele>323</ele>
        <time>2022-11-18T09:23:53Z</time>
      </trkpt>
      <trkpt lat="44.68339" lon="5.19632">
        <ele>334</ele>
        <time>2022-11-18T09:23:53Z</time>
      </trkpt>
      <trkpt lat="44.68274" lon="5.19619">
        <ele>338</ele>
        <time>2022-11-18T09:23:53Z</time>
      </trkpt>
      <trkpt lat="44.68207" lon="5.19597">
        <ele>341</ele>
        <time>2022-11-18T09:23:53Z</time>
      </trkpt>
      <trkpt lat="44.6793" lon="5.19441">
        <ele>340</ele>
        <time>2022-11-18T09:23:53Z</time>
      </trkpt>
      <trkpt lat="44.67907" lon="5.1944">
        <ele>341</ele>
        <time>2022-11-18T09:23:53Z</time>
      </trkpt>
      <trkpt lat="44.67864" lon="5.19453">
        <ele>345</ele>
        <time>2022-11-18T09:23:53Z</time>
      </trkpt>
      <trkpt lat="44.67764" lon="5.19493">
        <ele>353</ele>
        <time>2022-11-18T09:23:53Z</time>
      </trkpt>
      <trkpt lat="44.6771" lon="5.19512">
        <ele>350</ele>
        <time>2022-11-18T09:23:53Z</time>
      </trkpt>
      <trkpt lat="44.6766" lon="5.19516">
        <ele>352</ele>
        <time>2022-11-18T09:23:53Z</time>
      </trkpt>
      <trkpt lat="44.67595" lon="5.19512">
        <ele>366</ele>
        <time>2022-11-18T09:23:53Z</time>
      </trkpt>
      <trkpt lat="44.67577" lon="5.19518">
        <ele>368</ele>
        <time>2022-11-18T09:23:53Z</time>
      </trkpt>
      <trkpt lat="44.67565" lon="5.19533">
        <ele>365</ele>
        <time>2022-11-18T09:23:53Z</time>
      </trkpt>
      <trkpt lat="44.67541" lon="5.19592">
        <ele>366</ele>
        <time>2022-11-18T09:23:53Z</time>
      </trkpt>
      <trkpt lat="44.67509" lon="5.19615">
        <ele>371</ele>
        <time>2022-11-18T09:23:53Z</time>
      </trkpt>
      <trkpt lat="44.67475" lon="5.19629">
        <ele>369</ele>
        <time>2022-11-18T09:23:53Z</time>
      </trkpt>
      <trkpt lat="44.67423" lon="5.1963">
        <ele>369</ele>
        <time>2022-11-18T09:23:53Z</time>
      </trkpt>
      <trkpt lat="44.67398" lon="5.19644">
        <ele>366</ele>
        <time>2022-11-18T09:23:53Z</time>
      </trkpt>
      <trkpt lat="44.67386" lon="5.19675">
        <ele>368</ele>
        <time>2022-11-18T09:23:53Z</time>
      </trkpt>
      <trkpt lat="44.67354" lon="5.19771">
        <ele>377</ele>
        <time>2022-11-18T09:23:53Z</time>
      </trkpt>
      <trkpt lat="44.67353" lon="5.19818">
        <ele>373</ele>
        <time>2022-11-18T09:23:53Z</time>
      </trkpt>
      <trkpt lat="44.67259" lon="5.19899">
        <ele>373</ele>
        <time>2022-11-18T09:23:53Z</time>
      </trkpt>
      <trkpt lat="44.67213" lon="5.19934">
        <ele>385</ele>
        <time>2022-11-18T09:23:53Z</time>
      </trkpt>
      <trkpt lat="44.67172" lon="5.19964">
        <ele>388</ele>
        <time>2022-11-18T09:23:53Z</time>
      </trkpt>
      <trkpt lat="44.67146" lon="5.19978">
        <ele>391</ele>
        <time>2022-11-18T09:23:53Z</time>
      </trkpt>
      <trkpt lat="44.67093" lon="5.20032">
        <ele>394</ele>
        <time>2022-11-18T09:23:53Z</time>
      </trkpt>
      <trkpt lat="44.67083" lon="5.20066">
        <ele>394</ele>
        <time>2022-11-18T09:23:53Z</time>
      </trkpt>
      <trkpt lat="44.67064" lon="5.20103">
        <ele>394</ele>
        <time>2022-11-18T09:23:53Z</time>
      </trkpt>
      <trkpt lat="44.67033" lon="5.20117">
        <ele>397</ele>
        <time>2022-11-18T09:23:53Z</time>
      </trkpt>
      <trkpt lat="44.66998" lon="5.20153">
        <ele>398</ele>
        <time>2022-11-18T09:23:53Z</time>
      </trkpt>
      <trkpt lat="44.66976" lon="5.20206">
        <ele>396</ele>
        <time>2022-11-18T09:23:53Z</time>
      </trkpt>
      <trkpt lat="44.66944" lon="5.20242">
        <ele>400</ele>
        <time>2022-11-18T09:23:53Z</time>
      </trkpt>
      <trkpt lat="44.66909" lon="5.20275">
        <ele>403</ele>
        <time>2022-11-18T09:23:53Z</time>
      </trkpt>
      <trkpt lat="44.66869" lon="5.20339">
        <ele>407</ele>
        <time>2022-11-18T09:23:53Z</time>
      </trkpt>
      <trkpt lat="44.66825" lon="5.20397">
        <ele>419</ele>
        <time>2022-11-18T09:23:53Z</time>
      </trkpt>
      <trkpt lat="44.6677" lon="5.20435">
        <ele>421</ele>
        <time>2022-11-18T09:23:53Z</time>
      </trkpt>
      <trkpt lat="44.66692" lon="5.20494">
        <ele>427</ele>
        <time>2022-11-18T09:23:53Z</time>
      </trkpt>
      <trkpt lat="44.66621" lon="5.20541">
        <ele>436</ele>
        <time>2022-11-18T09:23:53Z</time>
      </trkpt>
      <trkpt lat="44.66584" lon="5.20668">
        <ele>436</ele>
        <time>2022-11-18T09:23:53Z</time>
      </trkpt>
      <trkpt lat="44.66575" lon="5.20762">
        <ele>435</ele>
        <time>2022-11-18T09:23:53Z</time>
      </trkpt>
      <trkpt lat="44.66556" lon="5.20806">
        <ele>444</ele>
        <time>2022-11-18T09:23:53Z</time>
      </trkpt>
      <trkpt lat="44.66538" lon="5.20861">
        <ele>452</ele>
        <time>2022-11-18T09:23:53Z</time>
      </trkpt>
      <trkpt lat="44.66513" lon="5.20989">
        <ele>454</ele>
        <time>2022-11-18T09:23:53Z</time>
      </trkpt>
      <trkpt lat="44.66479" lon="5.21051">
        <ele>458</ele>
        <time>2022-11-18T09:23:53Z</time>
      </trkpt>
      <trkpt lat="44.66451" lon="5.21103">
        <ele>465</ele>
        <time>2022-11-18T09:23:53Z</time>
      </trkpt>
      <trkpt lat="44.66431" lon="5.21168">
        <ele>467</ele>
        <time>2022-11-18T09:23:53Z</time>
      </trkpt>
      <trkpt lat="44.6642" lon="5.21177">
        <ele>466</ele>
        <time>2022-11-18T09:23:53Z</time>
      </trkpt>
      <trkpt lat="44.66381" lon="5.21184">
        <ele>468</ele>
        <time>2022-11-18T09:23:53Z</time>
      </trkpt>
      <trkpt lat="44.66367" lon="5.21215">
        <ele>468</ele>
        <time>2022-11-18T09:23:53Z</time>
      </trkpt>
      <trkpt lat="44.66356" lon="5.21221">
        <ele>469</ele>
        <time>2022-11-18T09:23:53Z</time>
      </trkpt>
      <trkpt lat="44.6635" lon="5.21202">
        <ele>471</ele>
        <time>2022-11-18T09:23:53Z</time>
      </trkpt>
      <trkpt lat="44.66344" lon="5.21173">
        <ele>475</ele>
        <time>2022-11-18T09:23:53Z</time>
      </trkpt>
      <trkpt lat="44.66328" lon="5.21175">
        <ele>478</ele>
        <time>2022-11-18T09:23:53Z</time>
      </trkpt>
      <trkpt lat="44.66298" lon="5.21212">
        <ele>483</ele>
        <time>2022-11-18T09:23:53Z</time>
      </trkpt>
      <trkpt lat="44.66252" lon="5.2125">
        <ele>489</ele>
        <time>2022-11-18T09:23:53Z</time>
      </trkpt>
      <trkpt lat="44.66225" lon="5.21306">
        <ele>485</ele>
        <time>2022-11-18T09:23:53Z</time>
      </trkpt>
      <trkpt lat="44.66208" lon="5.21349">
        <ele>487</ele>
        <time>2022-11-18T09:23:53Z</time>
      </trkpt>
      <trkpt lat="44.66196" lon="5.21465">
        <ele>487</ele>
        <time>2022-11-18T09:23:53Z</time>
      </trkpt>
      <trkpt lat="44.66195" lon="5.21512">
        <ele>485</ele>
        <time>2022-11-18T09:23:53Z</time>
      </trkpt>
      <trkpt lat="44.66174" lon="5.21552">
        <ele>486</ele>
        <time>2022-11-18T09:23:53Z</time>
      </trkpt>
      <trkpt lat="44.66159" lon="5.21589">
        <ele>488</ele>
        <time>2022-11-18T09:23:53Z</time>
      </trkpt>
      <trkpt lat="44.66181" lon="5.21625">
        <ele>483</ele>
        <time>2022-11-18T09:23:53Z</time>
      </trkpt>
      <trkpt lat="44.66177" lon="5.21704">
        <ele>485</ele>
        <time>2022-11-18T09:23:53Z</time>
      </trkpt>
      <trkpt lat="44.66162" lon="5.21756">
        <ele>489</ele>
        <time>2022-11-18T09:23:53Z</time>
      </trkpt>
      <trkpt lat="44.66152" lon="5.21803">
        <ele>494</ele>
        <time>2022-11-18T09:23:53Z</time>
      </trkpt>
      <trkpt lat="44.66143" lon="5.21863">
        <ele>498</ele>
        <time>2022-11-18T09:23:53Z</time>
      </trkpt>
      <trkpt lat="44.66144" lon="5.21913">
        <ele>501</ele>
        <time>2022-11-18T09:23:53Z</time>
      </trkpt>
      <trkpt lat="44.66132" lon="5.21941">
        <ele>503</ele>
        <time>2022-11-18T09:23:53Z</time>
      </trkpt>
      <trkpt lat="44.66116" lon="5.21965">
        <ele>506</ele>
        <time>2022-11-18T09:23:53Z</time>
      </trkpt>
      <trkpt lat="44.66079" lon="5.21992">
        <ele>511</ele>
        <time>2022-11-18T09:23:53Z</time>
      </trkpt>
      <trkpt lat="44.65938" lon="5.2224">
        <ele>516</ele>
        <time>2022-11-18T09:23:53Z</time>
      </trkpt>
      <trkpt lat="44.65884" lon="5.22306">
        <ele>517</ele>
        <time>2022-11-18T09:23:53Z</time>
      </trkpt>
      <trkpt lat="44.65829" lon="5.22348">
        <ele>517</ele>
        <time>2022-11-18T09:23:53Z</time>
      </trkpt>
      <trkpt lat="44.65793" lon="5.22355">
        <ele>518</ele>
        <time>2022-11-18T09:23:53Z</time>
      </trkpt>
      <trkpt lat="44.65763" lon="5.22369">
        <ele>520</ele>
        <time>2022-11-18T09:23:53Z</time>
      </trkpt>
      <trkpt lat="44.65733" lon="5.22399">
        <ele>516</ele>
        <time>2022-11-18T09:23:53Z</time>
      </trkpt>
      <trkpt lat="44.65713" lon="5.22411">
        <ele>519</ele>
        <time>2022-11-18T09:23:53Z</time>
      </trkpt>
      <trkpt lat="44.65689" lon="5.22448">
        <ele>522</ele>
        <time>2022-11-18T09:23:53Z</time>
      </trkpt>
      <trkpt lat="44.65671" lon="5.22462">
        <ele>523</ele>
        <time>2022-11-18T09:23:53Z</time>
      </trkpt>
      <trkpt lat="44.6565" lon="5.22477">
        <ele>526</ele>
        <time>2022-11-18T09:23:53Z</time>
      </trkpt>
      <trkpt lat="44.6563" lon="5.22482">
        <ele>530</ele>
        <time>2022-11-18T09:23:53Z</time>
      </trkpt>
      <trkpt lat="44.65621" lon="5.22482">
        <ele>531</ele>
        <time>2022-11-18T09:23:53Z</time>
      </trkpt>
      <trkpt lat="44.65603" lon="5.22481">
        <ele>535</ele>
        <time>2022-11-18T09:23:53Z</time>
      </trkpt>
      <trkpt lat="44.65587" lon="5.22499">
        <ele>540</ele>
        <time>2022-11-18T09:23:53Z</time>
      </trkpt>
      <trkpt lat="44.65567" lon="5.22574">
        <ele>544</ele>
        <time>2022-11-18T09:23:53Z</time>
      </trkpt>
      <trkpt lat="44.65548" lon="5.22614">
        <ele>545</ele>
        <time>2022-11-18T09:23:53Z</time>
      </trkpt>
      <trkpt lat="44.65531" lon="5.22635">
        <ele>547</ele>
        <time>2022-11-18T09:23:53Z</time>
      </trkpt>
      <trkpt lat="44.65518" lon="5.22641">
        <ele>550</ele>
        <time>2022-11-18T09:23:53Z</time>
      </trkpt>
      <trkpt lat="44.65507" lon="5.22634">
        <ele>554</ele>
        <time>2022-11-18T09:23:53Z</time>
      </trkpt>
      <trkpt lat="44.65507" lon="5.22612">
        <ele>557</ele>
        <time>2022-11-18T09:23:53Z</time>
      </trkpt>
      <trkpt lat="44.6552" lon="5.22565">
        <ele>558</ele>
        <time>2022-11-18T09:23:53Z</time>
      </trkpt>
      <trkpt lat="44.65516" lon="5.2253">
        <ele>558</ele>
        <time>2022-11-18T09:23:53Z</time>
      </trkpt>
      <trkpt lat="44.6551" lon="5.2252">
        <ele>559</ele>
        <time>2022-11-18T09:23:53Z</time>
      </trkpt>
      <trkpt lat="44.65496" lon="5.22526">
        <ele>560</ele>
        <time>2022-11-18T09:23:53Z</time>
      </trkpt>
      <trkpt lat="44.65471" lon="5.22531">
        <ele>564</ele>
        <time>2022-11-18T09:23:53Z</time>
      </trkpt>
      <trkpt lat="44.65443" lon="5.22555">
        <ele>572</ele>
        <time>2022-11-18T09:23:53Z</time>
      </trkpt>
      <trkpt lat="44.65429" lon="5.22579">
        <ele>579</ele>
        <time>2022-11-18T09:23:53Z</time>
      </trkpt>
      <trkpt lat="44.65417" lon="5.22604">
        <ele>585</ele>
        <time>2022-11-18T09:23:53Z</time>
      </trkpt>
      <trkpt lat="44.65397" lon="5.2259">
        <ele>591</ele>
        <time>2022-11-18T09:23:53Z</time>
      </trkpt>
      <trkpt lat="44.65394" lon="5.2254">
        <ele>585</ele>
        <time>2022-11-18T09:23:53Z</time>
      </trkpt>
      <trkpt lat="44.65395" lon="5.22527">
        <ele>582</ele>
        <time>2022-11-18T09:23:53Z</time>
      </trkpt>
      <trkpt lat="44.65395" lon="5.22502">
        <ele>576</ele>
        <time>2022-11-18T09:23:53Z</time>
      </trkpt>
      <trkpt lat="44.6538" lon="5.22501">
        <ele>580</ele>
        <time>2022-11-18T09:23:53Z</time>
      </trkpt>
      <trkpt lat="44.65368" lon="5.22504">
        <ele>582</ele>
        <time>2022-11-18T09:23:53Z</time>
      </trkpt>
      <trkpt lat="44.65343" lon="5.22518">
        <ele>589</ele>
        <time>2022-11-18T09:23:53Z</time>
      </trkpt>
      <trkpt lat="44.65317" lon="5.22551">
        <ele>600</ele>
        <time>2022-11-18T09:23:53Z</time>
      </trkpt>
      <trkpt lat="44.65299" lon="5.2255">
        <ele>601</ele>
        <time>2022-11-18T09:23:53Z</time>
      </trkpt>
      <trkpt lat="44.65278" lon="5.22515">
        <ele>600</ele>
        <time>2022-11-18T09:23:53Z</time>
      </trkpt>
      <trkpt lat="44.65269" lon="5.22508">
        <ele>601</ele>
        <time>2022-11-18T09:23:53Z</time>
      </trkpt>
      <trkpt lat="44.65203" lon="5.22523">
        <ele>606</ele>
        <time>2022-11-18T09:23:53Z</time>
      </trkpt>
      <trkpt lat="44.6518" lon="5.2256">
        <ele>607</ele>
        <time>2022-11-18T09:23:53Z</time>
      </trkpt>
      <trkpt lat="44.65156" lon="5.22625">
        <ele>623</ele>
        <time>2022-11-18T09:23:53Z</time>
      </trkpt>
      <trkpt lat="44.65124" lon="5.22642">
        <ele>632</ele>
        <time>2022-11-18T09:23:53Z</time>
      </trkpt>
      <trkpt lat="44.65108" lon="5.22642">
        <ele>635</ele>
        <time>2022-11-18T09:23:53Z</time>
      </trkpt>
      <trkpt lat="44.65093" lon="5.22634">
        <ele>640</ele>
        <time>2022-11-18T09:23:53Z</time>
      </trkpt>
      <trkpt lat="44.65093" lon="5.22606">
        <ele>633</ele>
        <time>2022-11-18T09:23:53Z</time>
      </trkpt>
      <trkpt lat="44.65092" lon="5.22581">
        <ele>628</ele>
        <time>2022-11-18T09:23:53Z</time>
      </trkpt>
      <trkpt lat="44.65076" lon="5.2258">
        <ele>634</ele>
        <time>2022-11-18T09:23:53Z</time>
      </trkpt>
      <trkpt lat="44.65058" lon="5.22566">
        <ele>639</ele>
        <time>2022-11-18T09:23:53Z</time>
      </trkpt>
      <trkpt lat="44.65043" lon="5.22553">
        <ele>644</ele>
        <time>2022-11-18T09:23:53Z</time>
      </trkpt>
      <trkpt lat="44.65037" lon="5.22534">
        <ele>644</ele>
        <time>2022-11-18T09:23:53Z</time>
      </trkpt>
      <trkpt lat="44.65033" lon="5.22518">
        <ele>642</ele>
        <time>2022-11-18T09:23:53Z</time>
      </trkpt>
      <trkpt lat="44.65019" lon="5.22508">
        <ele>647</ele>
        <time>2022-11-18T09:23:53Z</time>
      </trkpt>
      <trkpt lat="44.64991" lon="5.22487">
        <ele>655</ele>
        <time>2022-11-18T09:23:53Z</time>
      </trkpt>
      <trkpt lat="44.64973" lon="5.22458">
        <ele>652</ele>
        <time>2022-11-18T09:23:53Z</time>
      </trkpt>
      <trkpt lat="44.64962" lon="5.22457">
        <ele>654</ele>
        <time>2022-11-18T09:23:53Z</time>
      </trkpt>
      <trkpt lat="44.64968" lon="5.22477">
        <ele>659</ele>
        <time>2022-11-18T09:23:53Z</time>
      </trkpt>
      <trkpt lat="44.64988" lon="5.22522">
        <ele>665</ele>
        <time>2022-11-18T09:23:53Z</time>
      </trkpt>
      <trkpt lat="44.65" lon="5.22576">
        <ele>671</ele>
        <time>2022-11-18T09:23:53Z</time>
      </trkpt>
      <trkpt lat="44.65018" lon="5.22627">
        <ele>673</ele>
        <time>2022-11-18T09:23:53Z</time>
      </trkpt>
      <trkpt lat="44.65022" lon="5.22675">
        <ele>678</ele>
        <time>2022-11-18T09:23:53Z</time>
      </trkpt>
      <trkpt lat="44.65016" lon="5.22719">
        <ele>688</ele>
        <time>2022-11-18T09:23:53Z</time>
      </trkpt>
      <trkpt lat="44.65035" lon="5.22767">
        <ele>689</ele>
        <time>2022-11-18T09:23:53Z</time>
      </trkpt>
      <trkpt lat="44.65043" lon="5.22805">
        <ele>695</ele>
        <time>2022-11-18T09:23:53Z</time>
      </trkpt>
      <trkpt lat="44.65068" lon="5.22898">
        <ele>699</ele>
        <time>2022-11-18T09:23:53Z</time>
      </trkpt>
      <trkpt lat="44.65053" lon="5.22948">
        <ele>706</ele>
        <time>2022-11-18T09:23:53Z</time>
      </trkpt>
      <trkpt lat="44.65036" lon="5.22978">
        <ele>707</ele>
        <time>2022-11-18T09:23:53Z</time>
      </trkpt>
      <trkpt lat="44.65018" lon="5.23002">
        <ele>709</ele>
        <time>2022-11-18T09:23:53Z</time>
      </trkpt>
      <trkpt lat="44.64995" lon="5.2302">
        <ele>713</ele>
        <time>2022-11-18T09:23:53Z</time>
      </trkpt>
      <trkpt lat="44.64974" lon="5.23047">
        <ele>715</ele>
        <time>2022-11-18T09:23:53Z</time>
      </trkpt>
      <trkpt lat="44.6495" lon="5.23084">
        <ele>720</ele>
        <time>2022-11-18T09:23:53Z</time>
      </trkpt>
      <trkpt lat="44.64925" lon="5.23114">
        <ele>726</ele>
        <time>2022-11-18T09:23:53Z</time>
      </trkpt>
      <trkpt lat="44.64897" lon="5.23148">
        <ele>735</ele>
        <time>2022-11-18T09:23:53Z</time>
      </trkpt>
      <trkpt lat="44.64867" lon="5.23171">
        <ele>750</ele>
        <time>2022-11-18T09:23:53Z</time>
      </trkpt>
      <trkpt lat="44.64825" lon="5.23223">
        <ele>747</ele>
        <time>2022-11-18T09:23:53Z</time>
      </trkpt>
      <trkpt lat="44.64759" lon="5.23348">
        <ele>746</ele>
        <time>2022-11-18T09:23:53Z</time>
      </trkpt>
      <trkpt lat="44.64718" lon="5.23431">
        <ele>763</ele>
        <time>2022-11-18T09:23:53Z</time>
      </trkpt>
      <trkpt lat="44.64674" lon="5.23486">
        <ele>764</ele>
        <time>2022-11-18T09:23:53Z</time>
      </trkpt>
      <trkpt lat="44.64651" lon="5.23494">
        <ele>758</ele>
        <time>2022-11-18T09:23:53Z</time>
      </trkpt>
      <trkpt lat="44.64617" lon="5.23524">
        <ele>752</ele>
        <time>2022-11-18T09:23:53Z</time>
      </trkpt>
      <trkpt lat="44.64596" lon="5.23535">
        <ele>745</ele>
        <time>2022-11-18T09:23:53Z</time>
      </trkpt>
      <trkpt lat="44.64575" lon="5.23569">
        <ele>754</ele>
        <time>2022-11-18T09:23:53Z</time>
      </trkpt>
      <trkpt lat="44.64555" lon="5.23571">
        <ele>752</ele>
        <time>2022-11-18T09:23:53Z</time>
      </trkpt>
      <trkpt lat="44.6454" lon="5.23536">
        <ele>751</ele>
        <time>2022-11-18T09:23:53Z</time>
      </trkpt>
      <trkpt lat="44.6453" lon="5.23497">
        <ele>754</ele>
        <time>2022-11-18T09:23:53Z</time>
      </trkpt>
      <trkpt lat="44.64531" lon="5.23456">
        <ele>754</ele>
        <time>2022-11-18T09:23:53Z</time>
      </trkpt>
      <trkpt lat="44.64532" lon="5.23425">
        <ele>756</ele>
        <time>2022-11-18T09:23:53Z</time>
      </trkpt>
      <trkpt lat="44.64533" lon="5.23393">
        <ele>758</ele>
        <time>2022-11-18T09:23:53Z</time>
      </trkpt>
      <trkpt lat="44.64549" lon="5.23357">
        <ele>753</ele>
        <time>2022-11-18T09:23:53Z</time>
      </trkpt>
      <trkpt lat="44.6455" lon="5.23312">
        <ele>753</ele>
        <time>2022-11-18T09:23:53Z</time>
      </trkpt>
      <trkpt lat="44.64533" lon="5.23296">
        <ele>759</ele>
        <time>2022-11-18T09:23:53Z</time>
      </trkpt>
      <trkpt lat="44.64508" lon="5.23288">
        <ele>768</ele>
        <time>2022-11-18T09:23:53Z</time>
      </trkpt>
      <trkpt lat="44.64482" lon="5.23262">
        <ele>767</ele>
        <time>2022-11-18T09:23:53Z</time>
      </trkpt>
      <trkpt lat="44.64453" lon="5.23251">
        <ele>771</ele>
        <time>2022-11-18T09:23:53Z</time>
      </trkpt>
      <trkpt lat="44.64424" lon="5.2324">
        <ele>774</ele>
        <time>2022-11-18T09:23:53Z</time>
      </trkpt>
      <trkpt lat="44.64413" lon="5.23223">
        <ele>768</ele>
        <time>2022-11-18T09:23:53Z</time>
      </trkpt>
      <trkpt lat="44.64414" lon="5.23208">
        <ele>767</ele>
        <time>2022-11-18T09:23:53Z</time>
      </trkpt>
      <trkpt lat="44.64441" lon="5.23181">
        <ele>766</ele>
        <time>2022-11-18T09:23:53Z</time>
      </trkpt>
      <trkpt lat="44.64499" lon="5.23133">
        <ele>758</ele>
        <time>2022-11-18T09:23:53Z</time>
      </trkpt>
      <trkpt lat="44.64511" lon="5.23102">
        <ele>766</ele>
        <time>2022-11-18T09:23:53Z</time>
      </trkpt>
      <trkpt lat="44.64512" lon="5.23049">
        <ele>768</ele>
        <time>2022-11-18T09:23:53Z</time>
      </trkpt>
      <trkpt lat="44.64491" lon="5.23026">
        <ele>777</ele>
        <time>2022-11-18T09:23:53Z</time>
      </trkpt>
      <trkpt lat="44.64455" lon="5.22999">
        <ele>786</ele>
        <time>2022-11-18T09:23:53Z</time>
      </trkpt>
      <trkpt lat="44.64431" lon="5.22969">
        <ele>787</ele>
        <time>2022-11-18T09:23:53Z</time>
      </trkpt>
      <trkpt lat="44.64412" lon="5.22927">
        <ele>780</ele>
        <time>2022-11-18T09:23:53Z</time>
      </trkpt>
      <trkpt lat="44.64382" lon="5.22885">
        <ele>777</ele>
        <time>2022-11-18T09:23:53Z</time>
      </trkpt>
      <trkpt lat="44.64345" lon="5.22845">
        <ele>774</ele>
        <time>2022-11-18T09:23:53Z</time>
      </trkpt>
      <trkpt lat="44.64314" lon="5.22824">
        <ele>775</ele>
        <time>2022-11-18T09:23:53Z</time>
      </trkpt>
      <trkpt lat="44.64288" lon="5.22785">
        <ele>770</ele>
        <time>2022-11-18T09:23:53Z</time>
      </trkpt>
      <trkpt lat="44.64266" lon="5.22746">
        <ele>768</ele>
        <time>2022-11-18T09:23:53Z</time>
      </trkpt>
      <trkpt lat="44.6424" lon="5.22717">
        <ele>772</ele>
        <time>2022-11-18T09:23:53Z</time>
      </trkpt>
      <trkpt lat="44.64206" lon="5.22655">
        <ele>767</ele>
        <time>2022-11-18T09:23:53Z</time>
      </trkpt>
      <trkpt lat="44.64198" lon="5.22607">
        <ele>772</ele>
        <time>2022-11-18T09:23:53Z</time>
      </trkpt>
      <trkpt lat="44.64196" lon="5.22572">
        <ele>780</ele>
        <time>2022-11-18T09:23:53Z</time>
      </trkpt>
      <trkpt lat="44.64225" lon="5.2253">
        <ele>783</ele>
        <time>2022-11-18T09:23:53Z</time>
      </trkpt>
      <trkpt lat="44.64206" lon="5.22475">
        <ele>793</ele>
        <time>2022-11-18T09:23:53Z</time>
      </trkpt>
      <trkpt lat="44.64172" lon="5.22395">
        <ele>797</ele>
        <time>2022-11-18T09:23:53Z</time>
      </trkpt>
      <trkpt lat="44.64146" lon="5.22346">
        <ele>803</ele>
        <time>2022-11-18T09:23:53Z</time>
      </trkpt>
      <trkpt lat="44.6411" lon="5.22335">
        <ele>817</ele>
        <time>2022-11-18T09:23:53Z</time>
      </trkpt>
      <trkpt lat="44.64089" lon="5.22293">
        <ele>819</ele>
        <time>2022-11-18T09:23:53Z</time>
      </trkpt>
      <trkpt lat="44.64065" lon="5.22282">
        <ele>829</ele>
        <time>2022-11-18T09:23:53Z</time>
      </trkpt>
      <trkpt lat="44.64054" lon="5.22247">
        <ele>828</ele>
        <time>2022-11-18T09:23:53Z</time>
      </trkpt>
      <trkpt lat="44.64042" lon="5.22208">
        <ele>825</ele>
        <time>2022-11-18T09:23:53Z</time>
      </trkpt>
      <trkpt lat="44.64015" lon="5.22185">
        <ele>826</ele>
        <time>2022-11-18T09:23:53Z</time>
      </trkpt>
      <trkpt lat="44.63984" lon="5.22177">
        <ele>828</ele>
        <time>2022-11-18T09:23:53Z</time>
      </trkpt>
      <trkpt lat="44.63964" lon="5.22179">
        <ele>831</ele>
        <time>2022-11-18T09:23:53Z</time>
      </trkpt>
      <trkpt lat="44.63946" lon="5.22159">
        <ele>827</ele>
        <time>2022-11-18T09:23:53Z</time>
      </trkpt>
      <trkpt lat="44.63929" lon="5.22143">
        <ele>829</ele>
        <time>2022-11-18T09:23:53Z</time>
      </trkpt>
      <trkpt lat="44.63923" lon="5.22101">
        <ele>827</ele>
        <time>2022-11-18T09:23:53Z</time>
      </trkpt>
      <trkpt lat="44.63927" lon="5.22051">
        <ele>828</ele>
        <time>2022-11-18T09:23:53Z</time>
      </trkpt>
      <trkpt lat="44.63917" lon="5.21988">
        <ele>832</ele>
        <time>2022-11-18T09:23:53Z</time>
      </trkpt>
      <trkpt lat="44.63885" lon="5.21929">
        <ele>839</ele>
        <time>2022-11-18T09:23:53Z</time>
      </trkpt>
      <trkpt lat="44.63752" lon="5.21765">
        <ele>845</ele>
        <time>2022-11-18T09:23:53Z</time>
      </trkpt>
      <trkpt lat="44.63714" lon="5.21735">
        <ele>848</ele>
        <time>2022-11-18T09:23:53Z</time>
      </trkpt>
      <trkpt lat="44.63664" lon="5.21694">
        <ele>851</ele>
        <time>2022-11-18T09:23:53Z</time>
      </trkpt>
      <trkpt lat="44.63628" lon="5.21674">
        <ele>855</ele>
        <time>2022-11-18T09:23:53Z</time>
      </trkpt>
      <trkpt lat="44.63586" lon="5.21662">
        <ele>861</ele>
        <time>2022-11-18T09:23:53Z</time>
      </trkpt>
      <trkpt lat="44.63532" lon="5.2164">
        <ele>865</ele>
        <time>2022-11-18T09:23:53Z</time>
      </trkpt>
      <trkpt lat="44.63401" lon="5.21602">
        <ele>870</ele>
        <time>2022-11-18T09:23:53Z</time>
      </trkpt>
      <trkpt lat="44.63368" lon="5.21575">
        <ele>869</ele>
        <time>2022-11-18T09:23:53Z</time>
      </trkpt>
      <trkpt lat="44.63317" lon="5.21528">
        <ele>865</ele>
        <time>2022-11-18T09:23:53Z</time>
      </trkpt>
      <trkpt lat="44.63228" lon="5.2159">
        <ele>882</ele>
        <time>2022-11-18T09:23:53Z</time>
      </trkpt>
      <trkpt lat="44.6324" lon="5.21622">
        <ele>887</ele>
        <time>2022-11-18T09:23:53Z</time>
      </trkpt>
      <trkpt lat="44.63233" lon="5.21647">
        <ele>889</ele>
        <time>2022-11-18T09:23:53Z</time>
      </trkpt>
      <trkpt lat="44.63222" lon="5.21713">
        <ele>893</ele>
        <time>2022-11-18T09:23:53Z</time>
      </trkpt>
      <trkpt lat="44.63238" lon="5.21732">
        <ele>897</ele>
        <time>2022-11-18T09:23:53Z</time>
      </trkpt>
      <trkpt lat="44.63221" lon="5.21772">
        <ele>897</ele>
        <time>2022-11-18T09:23:53Z</time>
      </trkpt>
      <trkpt lat="44.63202" lon="5.218">
        <ele>895</ele>
        <time>2022-11-18T09:23:53Z</time>
      </trkpt>
      <trkpt lat="44.63186" lon="5.21824">
        <ele>890</ele>
        <time>2022-11-18T09:23:53Z</time>
      </trkpt>
      <trkpt lat="44.6319" lon="5.2184">
        <ele>893</ele>
        <time>2022-11-18T09:23:53Z</time>
      </trkpt>
      <trkpt lat="44.63244" lon="5.21833">
        <ele>911</ele>
        <time>2022-11-18T09:23:53Z</time>
      </trkpt>
      <trkpt lat="44.63291" lon="5.21826">
        <ele>916</ele>
        <time>2022-11-18T09:23:53Z</time>
      </trkpt>
      <trkpt lat="44.63344" lon="5.21864">
        <ele>922</ele>
        <time>2022-11-18T09:23:53Z</time>
      </trkpt>
      <trkpt lat="44.63357" lon="5.21883">
        <ele>924</ele>
        <time>2022-11-18T09:23:53Z</time>
      </trkpt>
      <trkpt lat="44.63378" lon="5.21941">
        <ele>933</ele>
        <time>2022-11-18T09:23:53Z</time>
      </trkpt>
      <trkpt lat="44.63411" lon="5.21977">
        <ele>935</ele>
        <time>2022-11-18T09:23:53Z</time>
      </trkpt>
      <trkpt lat="44.63462" lon="5.22005">
        <ele>932</ele>
        <time>2022-11-18T09:23:53Z</time>
      </trkpt>
      <trkpt lat="44.63488" lon="5.22038">
        <ele>934</ele>
        <time>2022-11-18T09:23:53Z</time>
      </trkpt>
      <trkpt lat="44.63529" lon="5.22113">
        <ele>947</ele>
        <time>2022-11-18T09:23:53Z</time>
      </trkpt>
      <trkpt lat="44.63567" lon="5.2214">
        <ele>946</ele>
        <time>2022-11-18T09:23:53Z</time>
      </trkpt>
      <trkpt lat="44.63608" lon="5.22208">
        <ele>952</ele>
        <time>2022-11-18T09:23:53Z</time>
      </trkpt>
      <trkpt lat="44.63645" lon="5.22235">
        <ele>948</ele>
        <time>2022-11-18T09:23:53Z</time>
      </trkpt>
      <trkpt lat="44.63663" lon="5.22239">
        <ele>944</ele>
        <time>2022-11-18T09:23:53Z</time>
      </trkpt>
      <trkpt lat="44.63681" lon="5.22306">
        <ele>945</ele>
        <time>2022-11-18T09:23:53Z</time>
      </trkpt>
      <trkpt lat="44.63684" lon="5.22363">
        <ele>952</ele>
        <time>2022-11-18T09:23:53Z</time>
      </trkpt>
      <trkpt lat="44.63713" lon="5.22377">
        <ele>950</ele>
        <time>2022-11-18T09:23:53Z</time>
      </trkpt>
      <trkpt lat="44.63767" lon="5.22399">
        <ele>944</ele>
        <time>2022-11-18T09:23:53Z</time>
      </trkpt>
      <trkpt lat="44.63782" lon="5.22406">
        <ele>942</ele>
        <time>2022-11-18T09:23:53Z</time>
      </trkpt>
      <trkpt lat="44.6379" lon="5.22448">
        <ele>950</ele>
        <time>2022-11-18T09:23:53Z</time>
      </trkpt>
      <trkpt lat="44.63825" lon="5.22512">
        <ele>954</ele>
        <time>2022-11-18T09:23:53Z</time>
      </trkpt>
      <trkpt lat="44.63871" lon="5.22534">
        <ele>947</ele>
        <time>2022-11-18T09:23:53Z</time>
      </trkpt>
      <trkpt lat="44.63911" lon="5.22555">
        <ele>942</ele>
        <time>2022-11-18T09:23:53Z</time>
      </trkpt>
      <trkpt lat="44.63924" lon="5.22565">
        <ele>938</ele>
        <time>2022-11-18T09:23:53Z</time>
      </trkpt>
      <trkpt lat="44.63922" lon="5.22584">
        <ele>939</ele>
        <time>2022-11-18T09:23:53Z</time>
      </trkpt>
      <trkpt lat="44.63904" lon="5.22646">
        <ele>952</ele>
        <time>2022-11-18T09:23:53Z</time>
      </trkpt>
      <trkpt lat="44.63911" lon="5.22731">
        <ele>946</ele>
        <time>2022-11-18T09:23:53Z</time>
      </trkpt>
      <trkpt lat="44.63905" lon="5.22772">
        <ele>948</ele>
        <time>2022-11-18T09:23:53Z</time>
      </trkpt>
      <trkpt lat="44.63888" lon="5.22834">
        <ele>955</ele>
        <time>2022-11-18T09:23:53Z</time>
      </trkpt>
      <trkpt lat="44.63882" lon="5.2289">
        <ele>957</ele>
        <time>2022-11-18T09:23:53Z</time>
      </trkpt>
      <trkpt lat="44.63881" lon="5.22925">
        <ele>960</ele>
        <time>2022-11-18T09:23:53Z</time>
      </trkpt>
      <trkpt lat="44.63921" lon="5.22965">
        <ele>951</ele>
        <time>2022-11-18T09:23:53Z</time>
      </trkpt>
      <trkpt lat="44.63944" lon="5.23029">
        <ele>965</ele>
        <time>2022-11-18T09:23:53Z</time>
      </trkpt>
      <trkpt lat="44.63979" lon="5.23056">
        <ele>965</ele>
        <time>2022-11-18T09:23:53Z</time>
      </trkpt>
      <trkpt lat="44.64033" lon="5.23075">
        <ele>961</ele>
        <time>2022-11-18T09:23:53Z</time>
      </trkpt>
      <trkpt lat="44.64055" lon="5.23088">
        <ele>956</ele>
        <time>2022-11-18T09:23:53Z</time>
      </trkpt>
      <trkpt lat="44.63991" lon="5.23211">
        <ele>960</ele>
        <time>2022-11-18T09:23:53Z</time>
      </trkpt>
      <trkpt lat="44.63958" lon="5.23263">
        <ele>966</ele>
        <time>2022-11-18T09:23:53Z</time>
      </trkpt>
      <trkpt lat="44.63955" lon="5.23294">
        <ele>968</ele>
        <time>2022-11-18T09:23:53Z</time>
      </trkpt>
      <trkpt lat="44.63969" lon="5.23336">
        <ele>964</ele>
        <time>2022-11-18T09:23:53Z</time>
      </trkpt>
      <trkpt lat="44.63993" lon="5.23372">
        <ele>965</ele>
        <time>2022-11-18T09:23:53Z</time>
      </trkpt>
      <trkpt lat="44.64006" lon="5.23414">
        <ele>971</ele>
        <time>2022-11-18T09:23:53Z</time>
      </trkpt>
      <trkpt lat="44.64034" lon="5.23446">
        <ele>968</ele>
        <time>2022-11-18T09:23:53Z</time>
      </trkpt>
      <trkpt lat="44.64026" lon="5.23478">
        <ele>970</ele>
        <time>2022-11-18T09:23:53Z</time>
      </trkpt>
      <trkpt lat="44.6399" lon="5.23495">
        <ele>981</ele>
        <time>2022-11-18T09:23:53Z</time>
      </trkpt>
      <trkpt lat="44.63909" lon="5.23572">
        <ele>986</ele>
        <time>2022-11-18T09:23:53Z</time>
      </trkpt>
      <trkpt lat="44.63886" lon="5.23609">
        <ele>992</ele>
        <time>2022-11-18T09:23:53Z</time>
      </trkpt>
      <trkpt lat="44.63878" lon="5.23656">
        <ele>997</ele>
        <time>2022-11-18T09:23:53Z</time>
      </trkpt>
      <trkpt lat="44.63885" lon="5.2371">
        <ele>1001</ele>
        <time>2022-11-18T09:23:53Z</time>
      </trkpt>
      <trkpt lat="44.63902" lon="5.23749">
        <ele>1001</ele>
        <time>2022-11-18T09:23:53Z</time>
      </trkpt>
      <trkpt lat="44.63915" lon="5.23778">
        <ele>999</ele>
        <time>2022-11-18T09:23:53Z</time>
      </trkpt>
      <trkpt lat="44.63918" lon="5.23822">
        <ele>1002</ele>
        <time>2022-11-18T09:23:53Z</time>
      </trkpt>
      <trkpt lat="44.63833" lon="5.23902">
        <ele>1002</ele>
        <time>2022-11-18T09:23:53Z</time>
      </trkpt>
      <trkpt lat="44.6376" lon="5.24031">
        <ele>998</ele>
        <time>2022-11-18T09:23:53Z</time>
      </trkpt>
      <trkpt lat="44.63718" lon="5.24064">
        <ele>999</ele>
        <time>2022-11-18T09:23:53Z</time>
      </trkpt>
      <trkpt lat="44.63709" lon="5.24063">
        <ele>1000</ele>
        <time>2022-11-18T09:23:53Z</time>
      </trkpt>
      <trkpt lat="44.6369" lon="5.24113">
        <ele>998</ele>
        <time>2022-11-18T09:23:53Z</time>
      </trkpt>
      <trkpt lat="44.63682" lon="5.2415">
        <ele>999</ele>
        <time>2022-11-18T09:23:53Z</time>
      </trkpt>
      <trkpt lat="44.63675" lon="5.24178">
        <ele>1001</ele>
        <time>2022-11-18T09:23:53Z</time>
      </trkpt>
      <trkpt lat="44.63684" lon="5.24188">
        <ele>1001</ele>
        <time>2022-11-18T09:23:53Z</time>
      </trkpt>
      <trkpt lat="44.63709" lon="5.24183">
        <ele>998</ele>
        <time>2022-11-18T09:23:53Z</time>
      </trkpt>
      <trkpt lat="44.63755" lon="5.24245">
        <ele>992</ele>
        <time>2022-11-18T09:23:53Z</time>
      </trkpt>
      <trkpt lat="44.63805" lon="5.24307">
        <ele>984</ele>
        <time>2022-11-18T09:23:53Z</time>
      </trkpt>
      <trkpt lat="44.63944" lon="5.24374">
        <ele>976</ele>
        <time>2022-11-18T09:23:53Z</time>
      </trkpt>
      <trkpt lat="44.64084" lon="5.24522">
        <ele>973</ele>
        <time>2022-11-18T09:23:53Z</time>
      </trkpt>
      <trkpt lat="44.6417" lon="5.2456">
        <ele>971</ele>
        <time>2022-11-18T09:23:53Z</time>
      </trkpt>
      <trkpt lat="44.64251" lon="5.24515">
        <ele>969</ele>
        <time>2022-11-18T09:23:53Z</time>
      </trkpt>
      <trkpt lat="44.64313" lon="5.24479">
        <ele>963</ele>
        <time>2022-11-18T09:23:53Z</time>
      </trkpt>
      <trkpt lat="44.64402" lon="5.24466">
        <ele>963</ele>
        <time>2022-11-18T09:23:53Z</time>
      </trkpt>
      <trkpt lat="44.64455" lon="5.24412">
        <ele>956</ele>
        <time>2022-11-18T09:23:53Z</time>
      </trkpt>
      <trkpt lat="44.64594" lon="5.24331">
        <ele>951</ele>
        <time>2022-11-18T09:23:53Z</time>
      </trkpt>
      <trkpt lat="44.64793" lon="5.24176">
        <ele>951</ele>
        <time>2022-11-18T09:23:53Z</time>
      </trkpt>
      <trkpt lat="44.64922" lon="5.24039">
        <ele>952</ele>
        <time>2022-11-18T09:23:53Z</time>
      </trkpt>
      <trkpt lat="44.64883" lon="5.23966">
        <ele>951</ele>
        <time>2022-11-18T09:23:53Z</time>
      </trkpt>
      <trkpt lat="44.64773" lon="5.23932">
        <ele>950</ele>
        <time>2022-11-18T09:23:53Z</time>
      </trkpt>
      <trkpt lat="44.64926" lon="5.23904">
        <ele>948</ele>
        <time>2022-11-18T09:23:53Z</time>
      </trkpt>
      <trkpt lat="44.64999" lon="5.23945">
        <ele>946</ele>
        <time>2022-11-18T09:23:53Z</time>
      </trkpt>
      <trkpt lat="44.65034" lon="5.24007">
        <ele>941</ele>
        <time>2022-11-18T09:23:53Z</time>
      </trkpt>
      <trkpt lat="44.65109" lon="5.24013">
        <ele>936</ele>
        <time>2022-11-18T09:23:53Z</time>
      </trkpt>
      <trkpt lat="44.65177" lon="5.24052">
        <ele>932</ele>
        <time>2022-11-18T09:23:53Z</time>
      </trkpt>
      <trkpt lat="44.65124" lon="5.24172">
        <ele>933</ele>
        <time>2022-11-18T09:23:53Z</time>
      </trkpt>
      <trkpt lat="44.65246" lon="5.24018">
        <ele>931</ele>
        <time>2022-11-18T09:23:53Z</time>
      </trkpt>
      <trkpt lat="44.65226" lon="5.24219">
        <ele>929</ele>
        <time>2022-11-18T09:23:53Z</time>
      </trkpt>
      <trkpt lat="44.65272" lon="5.24359">
        <ele>924</ele>
        <time>2022-11-18T09:23:53Z</time>
      </trkpt>
      <trkpt lat="44.65282" lon="5.2423">
        <ele>840</ele>
        <time>2022-11-18T09:23:53Z</time>
      </trkpt>
      <trkpt lat="44.65297" lon="5.24262">
        <ele>837</ele>
        <time>2022-11-18T09:23:53Z</time>
      </trkpt>
      <trkpt lat="44.65317" lon="5.24272">
        <ele>836</ele>
        <time>2022-11-18T09:23:53Z</time>
      </trkpt>
      <trkpt lat="44.65333" lon="5.2427">
        <ele>834</ele>
        <time>2022-11-18T09:23:53Z</time>
      </trkpt>
      <trkpt lat="44.65354" lon="5.24246">
        <ele>831</ele>
        <time>2022-11-18T09:23:53Z</time>
      </trkpt>
      <trkpt lat="44.6561" lon="5.23925">
        <ele>821</ele>
        <time>2022-11-18T09:23:53Z</time>
      </trkpt>
      <trkpt lat="44.65647" lon="5.23892">
        <ele>823</ele>
        <time>2022-11-18T09:23:53Z</time>
      </trkpt>
      <trkpt lat="44.65679" lon="5.23866">
        <ele>825</ele>
        <time>2022-11-18T09:23:53Z</time>
      </trkpt>
      <trkpt lat="44.65709" lon="5.23848">
        <ele>832</ele>
        <time>2022-11-18T09:23:53Z</time>
      </trkpt>
      <trkpt lat="44.65714" lon="5.2382">
        <ele>831</ele>
        <time>2022-11-18T09:23:53Z</time>
      </trkpt>
      <trkpt lat="44.65719" lon="5.23783">
        <ele>828</ele>
        <time>2022-11-18T09:23:53Z</time>
      </trkpt>
      <trkpt lat="44.65722" lon="5.2377">
        <ele>826</ele>
        <time>2022-11-18T09:23:53Z</time>
      </trkpt>
      <trkpt lat="44.65709" lon="5.23754">
        <ele>814</ele>
        <time>2022-11-18T09:23:53Z</time>
      </trkpt>
      <trkpt lat="44.6629" lon="5.23024">
        <ele>807</ele>
        <time>2022-11-18T09:23:53Z</time>
      </trkpt>
      <trkpt lat="44.66527" lon="5.22833">
        <ele>804</ele>
        <time>2022-11-18T09:23:53Z</time>
      </trkpt>
      <trkpt lat="44.66618" lon="5.22702">
        <ele>795</ele>
        <time>2022-11-18T09:23:53Z</time>
      </trkpt>
      <trkpt lat="44.66746" lon="5.22483">
        <ele>785</ele>
        <time>2022-11-18T09:23:53Z</time>
      </trkpt>
      <trkpt lat="44.66659" lon="5.22387">
        <ele>780</ele>
        <time>2022-11-18T09:23:53Z</time>
      </trkpt>
      <trkpt lat="44.66679" lon="5.22496">
        <ele>778</ele>
        <time>2022-11-18T09:23:53Z</time>
      </trkpt>
      <trkpt lat="44.66629" lon="5.22552">
        <ele>776</ele>
        <time>2022-11-18T09:23:53Z</time>
      </trkpt>
      <trkpt lat="44.66487" lon="5.2258">
        <ele>775</ele>
        <time>2022-11-18T09:23:53Z</time>
      </trkpt>
      <trkpt lat="44.66441" lon="5.22554">
        <ele>775</ele>
        <time>2022-11-18T09:23:53Z</time>
      </trkpt>
      <trkpt lat="44.66516" lon="5.22505">
        <ele>775</ele>
        <time>2022-11-18T09:23:53Z</time>
      </trkpt>
      <trkpt lat="44.66546" lon="5.22451">
        <ele>775</ele>
        <time>2022-11-18T09:23:53Z</time>
      </trkpt>
      <trkpt lat="44.66539" lon="5.22267">
        <ele>775</ele>
        <time>2022-11-18T09:23:53Z</time>
      </trkpt>
      <trkpt lat="44.66502" lon="5.22322">
        <ele>649</ele>
        <time>2022-11-18T09:23:53Z</time>
      </trkpt>
      <trkpt lat="44.66508" lon="5.22355">
        <ele>586</ele>
        <time>2022-11-18T09:23:53Z</time>
      </trkpt>
      <trkpt lat="44.66461" lon="5.22393">
        <ele>555</ele>
        <time>2022-11-18T09:23:53Z</time>
      </trkpt>
      <trkpt lat="44.66426" lon="5.22393">
        <ele>539</ele>
        <time>2022-11-18T09:23:53Z</time>
      </trkpt>
      <trkpt lat="44.66392" lon="5.22365">
        <ele>531</ele>
        <time>2022-11-18T09:23:53Z</time>
      </trkpt>
      <trkpt lat="44.66342" lon="5.2241">
        <ele>527</ele>
        <time>2022-11-18T09:23:53Z</time>
      </trkpt>
      <trkpt lat="44.66209" lon="5.22524">
        <ele>525</ele>
        <time>2022-11-18T09:23:53Z</time>
      </trkpt>
      <trkpt lat="44.66147" lon="5.2247">
        <ele>524</ele>
        <time>2022-11-18T09:23:53Z</time>
      </trkpt>
      <trkpt lat="44.66095" lon="5.22511">
        <ele>523</ele>
        <time>2022-11-18T09:23:53Z</time>
      </trkpt>
      <trkpt lat="44.66002" lon="5.22537">
        <ele>523</ele>
        <time>2022-11-18T09:23:53Z</time>
      </trkpt>
      <trkpt lat="44.66072" lon="5.22447">
        <ele>523</ele>
        <time>2022-11-18T09:23:53Z</time>
      </trkpt>
      <trkpt lat="44.66087" lon="5.22346">
        <ele>523</ele>
        <time>2022-11-18T09:23:53Z</time>
      </trkpt>
      <trkpt lat="44.66141" lon="5.22303">
        <ele>523</ele>
        <time>2022-11-18T09:23:53Z</time>
      </trkpt>
      <trkpt lat="44.66006" lon="5.2237">
        <ele>523</ele>
        <time>2022-11-18T09:23:53Z</time>
      </trkpt>
      <trkpt lat="44.65837" lon="5.22509">
        <ele>522</ele>
        <time>2022-11-18T09:23:53Z</time>
      </trkpt>
      <trkpt lat="44.65834" lon="5.22445">
        <ele>520</ele>
        <time>2022-11-18T09:23:53Z</time>
      </trkpt>
      <trkpt lat="44.65791" lon="5.22355">
        <ele>518</ele>
        <time>2022-11-18T09:23:53Z</time>
      </trkpt>
      <trkpt lat="44.65824" lon="5.22354">
        <ele>518</ele>
        <time>2022-11-18T09:23:53Z</time>
      </trkpt>
      <trkpt lat="44.65907" lon="5.22292">
        <ele>517</ele>
        <time>2022-11-18T09:23:53Z</time>
      </trkpt>
      <trkpt lat="44.6594" lon="5.2223">
        <ele>516</ele>
        <time>2022-11-18T09:23:53Z</time>
      </trkpt>
      <trkpt lat="44.65975" lon="5.22191">
        <ele>517</ele>
        <time>2022-11-18T09:23:53Z</time>
      </trkpt>
      <trkpt lat="44.66053" lon="5.22028">
        <ele>514</ele>
        <time>2022-11-18T09:23:53Z</time>
      </trkpt>
      <trkpt lat="44.66079" lon="5.21998">
        <ele>511</ele>
        <time>2022-11-18T09:23:53Z</time>
      </trkpt>
      <trkpt lat="44.66109" lon="5.21959">
        <ele>506</ele>
        <time>2022-11-18T09:23:53Z</time>
      </trkpt>
      <trkpt lat="44.66135" lon="5.21935">
        <ele>503</ele>
        <time>2022-11-18T09:23:53Z</time>
      </trkpt>
      <trkpt lat="44.66144" lon="5.2191">
        <ele>501</ele>
        <time>2022-11-18T09:23:53Z</time>
      </trkpt>
      <trkpt lat="44.6615" lon="5.21853">
        <ele>497</ele>
        <time>2022-11-18T09:23:53Z</time>
      </trkpt>
      <trkpt lat="44.66155" lon="5.21775">
        <ele>492</ele>
        <time>2022-11-18T09:23:53Z</time>
      </trkpt>
      <trkpt lat="44.66172" lon="5.21728">
        <ele>486</ele>
        <time>2022-11-18T09:23:53Z</time>
      </trkpt>
      <trkpt lat="44.66181" lon="5.21691">
        <ele>484</ele>
        <time>2022-11-18T09:23:53Z</time>
      </trkpt>
      <trkpt lat="44.66179" lon="5.21612">
        <ele>483</ele>
        <time>2022-11-18T09:23:53Z</time>
      </trkpt>
      <trkpt lat="44.66162" lon="5.21577">
        <ele>488</ele>
        <time>2022-11-18T09:23:53Z</time>
      </trkpt>
      <trkpt lat="44.66185" lon="5.21543">
        <ele>485</ele>
        <time>2022-11-18T09:23:53Z</time>
      </trkpt>
      <trkpt lat="44.662" lon="5.21484">
        <ele>485</ele>
        <time>2022-11-18T09:23:53Z</time>
      </trkpt>
      <trkpt lat="44.66206" lon="5.21361">
        <ele>487</ele>
        <time>2022-11-18T09:23:53Z</time>
      </trkpt>
      <trkpt lat="44.66237" lon="5.21303">
        <ele>482</ele>
        <time>2022-11-18T09:23:53Z</time>
      </trkpt>
      <trkpt lat="44.66259" lon="5.21241">
        <ele>489</ele>
        <time>2022-11-18T09:23:53Z</time>
      </trkpt>
      <trkpt lat="44.66304" lon="5.21215">
        <ele>480</ele>
        <time>2022-11-18T09:23:53Z</time>
      </trkpt>
      <trkpt lat="44.66327" lon="5.21188">
        <ele>477</ele>
        <time>2022-11-18T09:23:53Z</time>
      </trkpt>
      <trkpt lat="44.66346" lon="5.2117">
        <ele>475</ele>
        <time>2022-11-18T09:23:53Z</time>
      </trkpt>
      <trkpt lat="44.66353" lon="5.21224">
        <ele>469</ele>
        <time>2022-11-18T09:23:53Z</time>
      </trkpt>
      <trkpt lat="44.66391" lon="5.21182">
        <ele>467</ele>
        <time>2022-11-18T09:23:53Z</time>
      </trkpt>
      <trkpt lat="44.66422" lon="5.21174">
        <ele>466</ele>
        <time>2022-11-18T09:23:53Z</time>
      </trkpt>
      <trkpt lat="44.66439" lon="5.21149">
        <ele>467</ele>
        <time>2022-11-18T09:23:53Z</time>
      </trkpt>
      <trkpt lat="44.6646" lon="5.21113">
        <ele>463</ele>
        <time>2022-11-18T09:23:53Z</time>
      </trkpt>
      <trkpt lat="44.66496" lon="5.21036">
        <ele>454</ele>
        <time>2022-11-18T09:23:53Z</time>
      </trkpt>
      <trkpt lat="44.66522" lon="5.2099">
        <ele>452</ele>
        <time>2022-11-18T09:23:53Z</time>
      </trkpt>
      <trkpt lat="44.66538" lon="5.20865">
        <ele>452</ele>
        <time>2022-11-18T09:23:53Z</time>
      </trkpt>
      <trkpt lat="44.66558" lon="5.20809">
        <ele>443</ele>
        <time>2022-11-18T09:23:53Z</time>
      </trkpt>
      <trkpt lat="44.66579" lon="5.20759">
        <ele>432</ele>
        <time>2022-11-18T09:23:53Z</time>
      </trkpt>
      <trkpt lat="44.66581" lon="5.20712">
        <ele>434</ele>
        <time>2022-11-18T09:23:53Z</time>
      </trkpt>
      <trkpt lat="44.66584" lon="5.20665">
        <ele>436</ele>
        <time>2022-11-18T09:23:53Z</time>
      </trkpt>
      <trkpt lat="44.66626" lon="5.20538">
        <ele>436</ele>
        <time>2022-11-18T09:23:53Z</time>
      </trkpt>
      <trkpt lat="44.66651" lon="5.2052">
        <ele>435</ele>
        <time>2022-11-18T09:23:53Z</time>
      </trkpt>
      <trkpt lat="44.66692" lon="5.205">
        <ele>427</ele>
        <time>2022-11-18T09:23:53Z</time>
      </trkpt>
      <trkpt lat="44.66726" lon="5.20467">
        <ele>426</ele>
        <time>2022-11-18T09:23:53Z</time>
      </trkpt>
      <trkpt lat="44.66747" lon="5.20446">
        <ele>423</ele>
        <time>2022-11-18T09:23:53Z</time>
      </trkpt>
      <trkpt lat="44.66804" lon="5.20418">
        <ele>421</ele>
        <time>2022-11-18T09:23:53Z</time>
      </trkpt>
      <trkpt lat="44.66832" lon="5.20394">
        <ele>417</ele>
        <time>2022-11-18T09:23:53Z</time>
      </trkpt>
      <trkpt lat="44.6686" lon="5.20351">
        <ele>411</ele>
        <time>2022-11-18T09:23:53Z</time>
      </trkpt>
      <trkpt lat="44.66907" lon="5.20278">
        <ele>403</ele>
        <time>2022-11-18T09:23:53Z</time>
      </trkpt>
      <trkpt lat="44.66946" lon="5.20236">
        <ele>400</ele>
        <time>2022-11-18T09:23:53Z</time>
      </trkpt>
      <trkpt lat="44.66972" lon="5.20212">
        <ele>397</ele>
        <time>2022-11-18T09:23:53Z</time>
      </trkpt>
      <trkpt lat="44.66995" lon="5.20175">
        <ele>397</ele>
        <time>2022-11-18T09:23:53Z</time>
      </trkpt>
      <trkpt lat="44.67005" lon="5.20147">
        <ele>397</ele>
        <time>2022-11-18T09:23:53Z</time>
      </trkpt>
      <trkpt lat="44.67019" lon="5.20129">
        <ele>396</ele>
        <time>2022-11-18T09:23:53Z</time>
      </trkpt>
      <trkpt lat="44.67049" lon="5.20106">
        <ele>397</ele>
        <time>2022-11-18T09:23:53Z</time>
      </trkpt>
      <trkpt lat="44.67083" lon="5.20079">
        <ele>393</ele>
        <time>2022-11-18T09:23:53Z</time>
      </trkpt>
      <trkpt lat="44.67088" lon="5.20067">
        <ele>393</ele>
        <time>2022-11-18T09:23:53Z</time>
      </trkpt>
      <trkpt lat="44.67086" lon="5.20048">
        <ele>395</ele>
        <time>2022-11-18T09:23:53Z</time>
      </trkpt>
      <trkpt lat="44.67097" lon="5.20042">
        <ele>392</ele>
        <time>2022-11-18T09:23:53Z</time>
      </trkpt>
      <trkpt lat="44.67162" lon="5.19973">
        <ele>389</ele>
        <time>2022-11-18T09:23:53Z</time>
      </trkpt>
      <trkpt lat="44.67204" lon="5.1994">
        <ele>386</ele>
        <time>2022-11-18T09:23:53Z</time>
      </trkpt>
      <trkpt lat="44.67236" lon="5.1991">
        <ele>381</ele>
        <time>2022-11-18T09:23:53Z</time>
      </trkpt>
      <trkpt lat="44.67279" lon="5.19884">
        <ele>373</ele>
        <time>2022-11-18T09:23:53Z</time>
      </trkpt>
      <trkpt lat="44.67321" lon="5.19851">
        <ele>376</ele>
        <time>2022-11-18T09:23:53Z</time>
      </trkpt>
      <trkpt lat="44.67346" lon="5.19821">
        <ele>371</ele>
        <time>2022-11-18T09:23:53Z</time>
      </trkpt>
      <trkpt lat="44.67355" lon="5.19822">
        <ele>373</ele>
        <time>2022-11-18T09:23:53Z</time>
      </trkpt>
      <trkpt lat="44.67359" lon="5.19781">
        <ele>374</ele>
        <time>2022-11-18T09:23:53Z</time>
      </trkpt>
      <trkpt lat="44.67362" lon="5.19749">
        <ele>380</ele>
        <time>2022-11-18T09:23:53Z</time>
      </trkpt>
      <trkpt lat="44.6738" lon="5.19716">
        <ele>369</ele>
        <time>2022-11-18T09:23:53Z</time>
      </trkpt>
      <trkpt lat="44.67395" lon="5.19663">
        <ele>363</ele>
        <time>2022-11-18T09:23:53Z</time>
      </trkpt>
      <trkpt lat="44.67418" lon="5.19639">
        <ele>366</ele>
        <time>2022-11-18T09:23:53Z</time>
      </trkpt>
      <trkpt lat="44.67439" lon="5.1963">
        <ele>368</ele>
        <time>2022-11-18T09:23:53Z</time>
      </trkpt>
      <trkpt lat="44.67498" lon="5.19627">
        <ele>369</ele>
        <time>2022-11-18T09:23:53Z</time>
      </trkpt>
      <trkpt lat="44.67537" lon="5.19594">
        <ele>366</ele>
        <time>2022-11-18T09:23:53Z</time>
      </trkpt>
      <trkpt lat="44.67553" lon="5.1957">
        <ele>366</ele>
        <time>2022-11-18T09:23:53Z</time>
      </trkpt>
      <trkpt lat="44.6757" lon="5.19527">
        <ele>366</ele>
        <time>2022-11-18T09:23:53Z</time>
      </trkpt>
      <trkpt lat="44.67588" lon="5.19506">
        <ele>371</ele>
        <time>2022-11-18T09:23:53Z</time>
      </trkpt>
      <trkpt lat="44.67636" lon="5.19508">
        <ele>358</ele>
        <time>2022-11-18T09:23:53Z</time>
      </trkpt>
      <trkpt lat="44.67719" lon="5.19515">
        <ele>350</ele>
        <time>2022-11-18T09:23:53Z</time>
      </trkpt>
      <trkpt lat="44.67769" lon="5.19477">
        <ele>355</ele>
        <time>2022-11-18T09:23:53Z</time>
      </trkpt>
      <trkpt lat="44.67787" lon="5.19484">
        <ele>354</ele>
        <time>2022-11-18T09:23:53Z</time>
      </trkpt>
      <trkpt lat="44.67919" lon="5.1944">
        <ele>341</ele>
        <time>2022-11-18T09:23:53Z</time>
      </trkpt>
      <trkpt lat="44.67936" lon="5.19445">
        <ele>340</ele>
        <time>2022-11-18T09:23:53Z</time>
      </trkpt>
      <trkpt lat="44.68227" lon="5.19608">
        <ele>340</ele>
        <time>2022-11-18T09:23:53Z</time>
      </trkpt>
      <trkpt lat="44.68283" lon="5.19623">
        <ele>337</ele>
        <time>2022-11-18T09:23:53Z</time>
      </trkpt>
      <trkpt lat="44.68343" lon="5.19648">
        <ele>330</ele>
        <time>2022-11-18T09:23:53Z</time>
      </trkpt>
      <trkpt lat="44.68365" lon="5.19649">
        <ele>329</ele>
        <time>2022-11-18T09:23:53Z</time>
      </trkpt>
      <trkpt lat="44.68553" lon="5.1969">
        <ele>323</ele>
        <time>2022-11-18T09:23:53Z</time>
      </trkpt>
      <trkpt lat="44.68593" lon="5.19708">
        <ele>320</ele>
        <time>2022-11-18T09:23:53Z</time>
      </trkpt>
      <trkpt lat="44.68654" lon="5.19724">
        <ele>318</ele>
        <time>2022-11-18T09:23:53Z</time>
      </trkpt>
      <trkpt lat="44.68756" lon="5.19767">
        <ele>313</ele>
        <time>2022-11-18T09:23:53Z</time>
      </trkpt>
      <trkpt lat="44.68944" lon="5.19818">
        <ele>309</ele>
        <time>2022-11-18T09:23:53Z</time>
      </trkpt>
      <trkpt lat="44.68987" lon="5.19804">
        <ele>314</ele>
        <time>2022-11-18T09:23:53Z</time>
      </trkpt>
      <trkpt lat="44.69047" lon="5.19839">
        <ele>310</ele>
        <time>2022-11-18T09:23:53Z</time>
      </trkpt>
      <trkpt lat="44.69101" lon="5.19841">
        <ele>311</ele>
        <time>2022-11-18T09:23:53Z</time>
      </trkpt>
      <trkpt lat="44.69175" lon="5.19845">
        <ele>308</ele>
        <time>2022-11-18T09:23:53Z</time>
      </trkpt>
      <trkpt lat="44.69233" lon="5.19854">
        <ele>303</ele>
        <time>2022-11-18T09:23:53Z</time>
      </trkpt>
      <trkpt lat="44.69368" lon="5.19871">
        <ele>292</ele>
        <time>2022-11-18T09:23:53Z</time>
      </trkpt>
      <trkpt lat="44.69414" lon="5.19892">
        <ele>288</ele>
        <time>2022-11-18T09:23:53Z</time>
      </trkpt>
      <trkpt lat="44.69447" lon="5.19932">
        <ele>281</ele>
        <time>2022-11-18T09:23:53Z</time>
      </trkpt>
      <trkpt lat="44.69477" lon="5.1999">
        <ele>270</ele>
        <time>2022-11-18T09:23:53Z</time>
      </trkpt>
      <trkpt lat="44.69503" lon="5.20039">
        <ele>265</ele>
        <time>2022-11-18T09:23:53Z</time>
      </trkpt>
      <trkpt lat="44.69504" lon="5.20077">
        <ele>265</ele>
        <time>2022-11-18T09:23:53Z</time>
      </trkpt>
      <trkpt lat="44.69481" lon="5.20082">
        <ele>268</ele>
        <time>2022-11-18T09:23:53Z</time>
      </trkpt>
      <trkpt lat="44.69482" lon="5.20069">
        <ele>268</ele>
        <time>2022-11-18T09:23:53Z</time>
      </trkpt>
      <trkpt lat="44.69487" lon="5.20047">
        <ele>267</ele>
        <time>2022-11-18T09:23:53Z</time>
      </trkpt>
      <trkpt lat="44.69499" lon="5.20019">
        <ele>266</ele>
        <time>2022-11-18T09:23:53Z</time>
      </trkpt>
      <trkpt lat="44.6951" lon="5.19951">
        <ele>266</ele>
        <time>2022-11-18T09:23:53Z</time>
      </trkpt>
      <trkpt lat="44.69495" lon="5.19748">
        <ele>270</ele>
        <time>2022-11-18T09:23:53Z</time>
      </trkpt>
      <trkpt lat="44.69524" lon="5.19727">
        <ele>263</ele>
        <time>2022-11-18T09:23:53Z</time>
      </trkpt>
      <trkpt lat="44.6959" lon="5.19731">
        <ele>259</ele>
        <time>2022-11-18T09:23:53Z</time>
      </trkpt>
      <trkpt lat="44.69653" lon="5.19715">
        <ele>263</ele>
        <time>2022-11-18T09:23:53Z</time>
      </trkpt>
      <trkpt lat="44.69671" lon="5.19874">
        <ele>266</ele>
        <time>2022-11-18T09:23:53Z</time>
      </trkpt>
      <trkpt lat="44.69689" lon="5.19897">
        <ele>267</ele>
        <time>2022-11-18T09:23:53Z</time>
      </trkpt>
      <trkpt lat="44.69683" lon="5.20029">
        <ele>267</ele>
        <time>2022-11-18T09:23:53Z</time>
      </trkpt>
    </trkseg>
  </trk>
</gpx>